Location: Arroyo de Valdeoliva
(40.1604°N, 4.9878°W)
Time: 20:08:31
(UTC+00:00)

NOAA 15 - Pass Details

Date: 11 December 2025
Orbit: 793 x 810 km, 98.5° (Epoch: 12 January)

Event Time Altitude Azimuth Distance (km) Brightness Sun altitude
Rises 18:43:33 0° 164° (SSE) 3,313 7.8 -20.2°
Reaches altitude 10° 18:45:53 10° 163° (SSE) 2,385 7.0 -20.6°
Maximum altitude 18:51:10 86° 77° (ENE) 815 4.5 -21.6°
Drops below altitude 10° 18:56:28 10° 348° (NNW) 2,394 7.1 -22.6°
Sets 18:58:49 0° 348° (NNW) 3,326 7.8 -23.0°
